Weather History for KOOA - April, 2014

Change the Weather History Date:

Wednesday, April 2, 2014

  Actual Average (KOTM) Record (KOTM)
Temperature  
Mean Temperature 40 °F 46 °F  
Max Temperature 48 °F 57 °F 86 °F (1940)
Min Temperature 32 °F 35 °F 13 °F (1899)
Degree Days  
Heating Degree Days 25 19  
Month to date heating degree days 39  
Since 1 July heating degree days 5735  
Cooling Degree Days 0 0  
Month to date cooling degree days 0  
Year to date cooling degree days 1  
Moisture  
Dew Point 32 °F    
Average Humidity 71    
Maximum Humidity 88    
Minimum Humidity 54    
Precipitation  
Precipitation 0.00 in 0.09 in 1.05 in (1983)
Month to date precipitation 0.18  
Year to date precipitation 4.60  
Sea Level Pressure  
Sea Level Pressure 30.00 in    
Wind  
Wind Speed 10 mph (ENE)    
Max Wind Speed 23 mph    
Max Gust Speed 28 mph    
Visibility 10 miles    
Events Rain    
T = Trace of Precipitation, MM = Missing Value Source: NWS Daily Summary

Daily Weather History Graph

Daily Weather History Graph

Search for Another Location

Airport or City:

Trip Planner

Search our weather history database for the weather conditions in past years. The results will help you decide how hot, cold, wet, or windy it might be!

Date:

Astronomy

Apr. 02, 2014 Rise Set
Actual Time 6:51 AM CDT 7:36 PM CDT
Civil Twilight 6:23 AM CDT 8:04 PM CDT
Nautical Twilight 5:50 AM CDT 8:37 PM CDT
Astronomical Twilight 5:16 AM CDT 9:11 PM CDT
Moon 8:34 AM CDT 11:01 PM CDT
Length of Visible Light 13h 40m
Length of Day
12h 44m
Waxing Crescent, 10% of the Moon is Illuminated
Apr 2
Waxing Crescent
Apr 7
First Quarter
Apr 15
Full
Apr 22
Last Quarter
Apr 29
New

Hourly Weather History & Observations

Time (CDT) Temp. Windchill Dew Point Humidity Pressure Visibility Wind Dir Wind Speed Gust Speed Precip Events Conditions
12:15 AM 37.6 °F 34.0 °F 29.1 °F 72% 30.09 in 10.0 mi NNE 4.6 mph - N/A   Overcast
12:35 AM 37.4 °F 34.9 °F 29.3 °F 73% 30.09 in 10.0 mi NNE 3.5 mph - N/A   Overcast
12:55 AM 37.4 °F - 29.5 °F 73% 30.09 in 10.0 mi Calm Calm - N/A   Overcast
1:15 AM 37.6 °F 34.0 °F 29.3 °F 72% 30.08 in 10.0 mi NE 4.6 mph - N/A   Overcast
1:35 AM 37.4 °F - 28.9 °F 71% 30.07 in 10.0 mi Calm Calm - N/A   Overcast
1:55 AM 36.9 °F - 29.3 °F 74% 30.07 in 10.0 mi Calm Calm - N/A   Overcast
2:15 AM 36.7 °F - 28.8 °F 73% 30.06 in 10.0 mi Calm Calm - N/A   Overcast
2:35 AM 36.9 °F - 28.8 °F 72% 30.05 in 10.0 mi Calm Calm - N/A   Overcast
2:55 AM 36.1 °F 32.3 °F 28.8 °F 75% 30.06 in 10.0 mi North 4.6 mph - N/A   Mostly Cloudy
3:15 AM 36.0 °F 31.1 °F 29.3 °F 77% 30.07 in 10.0 mi NNE 5.8 mph - N/A   Mostly Cloudy
3:35 AM 36.0 °F 30.3 °F 28.9 °F 76% 30.07 in 10.0 mi NNE 6.9 mph - N/A   Overcast
3:55 AM 34.9 °F 28.3 °F 27.5 °F 74% 30.06 in 10.0 mi NNE 8.1 mph - N/A   Mostly Cloudy
4:15 AM 33.8 °F 27.7 °F 27.0 °F 76% 30.06 in 10.0 mi NNE 6.9 mph - N/A   Scattered Clouds
4:35 AM 32.5 °F 25.5 °F 27.0 °F 80% 30.07 in 10.0 mi NNE 8.1 mph - N/A   Clear
4:55 AM 33.4 °F 26.6 °F 28.0 °F 81% 30.08 in 10.0 mi NNE 8.1 mph - N/A   Scattered Clouds
5:15 AM 33.4 °F 26.6 °F 28.8 °F 83% 30.09 in 10.0 mi NE 8.1 mph - N/A   Mostly Cloudy
5:35 AM 33.1 °F 26.1 °F 28.9 °F 85% 30.09 in 10.0 mi NE 8.1 mph - N/A   Overcast
5:55 AM 32.7 °F 23.9 °F 29.1 °F 87% 30.09 in 10.0 mi NE 11.5 mph - N/A   Mostly Cloudy
6:15 AM 32.2 °F 22.3 °F 29.1 °F 88% 30.08 in 10.0 mi NE 13.8 mph - N/A   Scattered Clouds
7:35 AM 32.9 °F 24.7 °F 29.7 °F 88% 30.10 in 10.0 mi NE 10.4 mph - N/A   Clear
7:55 AM 33.1 °F 24.4 °F 29.8 °F 88% 30.11 in 10.0 mi ENE 11.5 mph - N/A   Clear
8:15 AM 33.8 °F 23.5 °F 30.2 °F 87% 30.08 in 10.0 mi ENE 16.1 mph - N/A   Clear
8:35 AM 35.1 °F 24.5 °F 30.4 °F 83% 30.07 in 10.0 mi ENE 18.4 mph - N/A   Clear
8:55 AM 35.6 °F 25.9 °F 30.7 °F 82% 30.07 in 10.0 mi ENE 16.1 mph - N/A   Clear
9:15 AM 36.1 °F 26.9 °F 30.6 °F 80% 30.08 in 10.0 mi ENE 15.0 mph - N/A   Clear
9:35 AM 36.5 °F 29.2 °F 30.6 °F 79% 30.08 in 10.0 mi East 10.4 mph 16.1 mph N/A   Clear
9:55 AM 39.0 °F 31.4 °F 31.5 °F 74% 30.07 in 7.0 mi ENE 12.7 mph - N/A   Clear
10:15 AM 39.2 °F 30.5 °F 31.5 °F 74% 30.06 in 7.0 mi East 16.1 mph - N/A   Mostly Cloudy
10:35 AM 40.6 °F 32.7 °F 31.6 °F 70% 30.05 in 10.0 mi East 15.0 mph - N/A   Mostly Cloudy
10:55 AM 42.3 °F 34.1 °F 31.8 °F 67% 30.05 in 7.0 mi East 17.3 mph 20.7 mph N/A   Overcast
11:35 AM 45.9 °F 38.8 °F 31.8 °F 58% 30.05 in 10.0 mi East 17.3 mph 23.0 mph N/A   Mostly Cloudy
11:55 AM 45.5 °F 38.3 °F 32.0 °F 59% 30.04 in 10.0 mi East 17.3 mph 21.9 mph N/A   Overcast
12:15 PM 45.5 °F 38.3 °F 32.0 °F 59% 30.02 in 10.0 mi East 17.3 mph 20.7 mph N/A   Overcast
12:35 PM 45.9 °F 39.1 °F 32.2 °F 59% 30.02 in 10.0 mi East 16.1 mph - N/A   Overcast
12:55 PM 46.9 °F - 32.5 °F 57% 30.02 in 10.0 mi East 17.3 mph 20.7 mph N/A   Overcast
1:15 PM 47.3 °F - 32.2 °F 56% 30.02 in 10.0 mi East 15.0 mph - N/A   Overcast
1:35 PM 47.8 °F - 32.4 °F 55% 30.03 in 10.0 mi East 13.8 mph 20.7 mph N/A   Overcast
1:55 PM 47.7 °F - 32.2 °F 55% 30.01 in 10.0 mi East 18.4 mph - N/A   Overcast
2:15 PM 47.5 °F - 32.0 °F 55% 29.99 in 10.0 mi East 18.4 mph - N/A   Overcast
2:35 PM 48.0 °F - 32.2 °F 54% 29.99 in 10.0 mi East 16.1 mph 21.9 mph N/A   Overcast
2:55 PM 47.7 °F - 32.4 °F 55% 29.98 in 10.0 mi East 17.3 mph - N/A   Overcast
3:15 PM 46.8 °F - 32.2 °F 57% 29.97 in 10.0 mi ENE 18.4 mph - N/A   Overcast
3:35 PM 46.4 °F 39.5 °F 32.7 °F 59% 29.96 in 10.0 mi East 17.3 mph - N/A   Overcast
3:55 PM 45.9 °F 39.4 °F 32.5 °F 60% 29.97 in 10.0 mi East 15.0 mph 23.0 mph N/A   Overcast
4:15 PM 45.9 °F 39.7 °F 33.6 °F 62% 29.96 in 10.0 mi East 13.8 mph 21.9 mph N/A Rain Light Rain
4:35 PM 44.6 °F 39.2 °F 35.1 °F 69% 29.96 in 10.0 mi East 10.4 mph - N/A   Overcast
5:15 PM 44.6 °F 37.8 °F 35.1 °F 69% 29.94 in 10.0 mi East 15.0 mph 19.6 mph N/A   Overcast
5:35 PM 45.1 °F 38.1 °F 35.1 °F 68% 29.93 in 10.0 mi East 16.1 mph - N/A   Overcast
5:55 PM 45.5 °F 38.9 °F 34.9 °F 66% 29.92 in 10.0 mi East 15.0 mph 20.7 mph N/A   Overcast
6:15 PM 45.5 °F 39.2 °F 34.9 °F 66% 29.92 in 10.0 mi East 13.8 mph - N/A   Overcast
6:35 PM 45.5 °F 38.9 °F 34.7 °F 66% 29.91 in 10.0 mi East 15.0 mph - N/A   Overcast
6:55 PM 45.1 °F 38.8 °F 35.1 °F 68% 29.92 in 10.0 mi ENE 13.8 mph - N/A   Overcast
7:15 PM 45.0 °F 37.9 °F 35.4 °F 69% 29.90 in 10.0 mi East 16.1 mph - N/A   Overcast
7:35 PM 44.8 °F 38.3 °F 35.2 °F 69% 29.90 in 10.0 mi East 13.8 mph - N/A   Overcast
7:55 PM 44.8 °F 38.3 °F 35.2 °F 69% 29.90 in 10.0 mi East 13.8 mph - N/A   Overcast
8:15 PM 45.3 °F 38.4 °F 34.9 °F 67% 29.90 in 10.0 mi East 16.1 mph 20.7 mph N/A   Overcast
8:35 PM 45.5 °F 37.6 °F 35.1 °F 67% 29.90 in 10.0 mi East 20.7 mph 24.2 mph N/A   Overcast
8:55 PM 45.3 °F 37.1 °F 35.1 °F 67% 29.90 in 10.0 mi East 21.9 mph 27.6 mph N/A   Overcast
9:15 PM 45.0 °F 37.9 °F 35.1 °F 68% 29.92 in 10.0 mi East 16.1 mph 27.6 mph N/A   Overcast
9:35 PM 45.0 °F 37.1 °F 36.0 °F 71% 29.92 in 10.0 mi ESE 19.6 mph 25.3 mph N/A   Overcast
9:55 PM 44.8 °F 36.2 °F 36.5 °F 73% 29.90 in 10.0 mi ESE 23.0 mph 26.5 mph N/A   Overcast
10:15 PM 44.6 °F 36.1 °F 37.4 °F 76% 29.90 in 10.0 mi ESE 21.9 mph 27.6 mph N/A   Overcast
10:35 PM 44.2 °F 36.4 °F 37.6 °F 77% 29.90 in 10.0 mi ESE 18.4 mph 24.2 mph N/A   Overcast
10:55 PM 44.2 °F 35.7 °F 37.8 °F 78% 29.90 in 10.0 mi East 21.9 mph 25.3 mph N/A   Overcast
11:15 PM 44.1 °F 35.9 °F 37.8 °F 78% 29.88 in 10.0 mi East 19.6 mph 26.5 mph N/A   Overcast
11:35 PM 44.1 °F 35.7 °F 37.6 °F 78% 29.87 in 10.0 mi East 20.7 mph 27.6 mph N/A   Overcast
11:55 PM 43.9 °F 35.7 °F 37.4 °F 78% 29.87 in 10.0 mi East 19.6 mph 24.2 mph N/A   Overcast